Palm Springs, CA

5:23 PM PST on February 05, 2016 (GMT -0800)
Palm Springs International

Weather History for KPSP - June, 2013

Change the Weather History Date:

Thursday, June 20, 2013

  Actual Average Record
Temperature  
Mean Temperature 87 °F 88 °F  
Max Temperature 102 °F 103 °F 118 °F (1929)
Min Temperature 72 °F 72 °F 53 °F (1938)
Degree Days  
Heating Degree Days 0 0  
Month to date heating degree days 0 0  
Since 1 June heating degree days 0 0  
Since 1 July heating degree days 760 874  
Cooling Degree Days 22 23  
Month to date cooling degree days 475 405  
Year to date cooling degree days 1517 1164  
Since 1 June cooling degree days 475 405  
Growing Degree Days 36 (Base 50)    
Moisture  
Dew Point 41 °F    
Average Humidity 27    
Maximum Humidity 46    
Minimum Humidity 8    
Precipitation  
Precipitation 0.00 in 0.00 in 0.00 in (2016)
Month to date precipitation 0.00 0.04  
Year to date precipitation 0.97 2.92  
Since 1 July precipitation 2.19  
Snow  
Snow 0.00 in - - ()
Month to date snowfall 0.0  
Year to date snowfall 0.0  
Since 1 June snowfall  
Since 1 July snowfall 0.0  
Snow Depth 0.00 in    
Sea Level Pressure  
Sea Level Pressure 29.67 in    
Wind  
Wind Speed 3 mph (West)    
Max Wind Speed 12 mph    
Max Gust Speed 17 mph    
Visibility 10 miles    
Events      
T = Trace of Precipitation, MM = Missing Value Source: NWS Daily Summary

Daily Weather History Graph

Daily Weather History Graph

Search for Another Location

Airport or City:

Trip Planner

Search our weather history database for the weather conditions in past years. The results will help you decide how hot, cold, wet, or windy it might be!

Date:

Astronomy

Jun. 20, 2013 Rise Set
Actual Time 5:35 AM PDT 7:59 PM PDT
Civil Twilight 5:06 AM PDT 8:29 PM PDT
Nautical Twilight 4:30 AM PDT 9:04 PM PDT
Astronomical Twilight 3:51 AM PDT 9:44 PM PDT
Moon 5:11 PM PDT (6/20) 2:59 AM PDT (6/20)
Length of Visible Light 15h 22m
Length of Day
14h 24m
Waxing Gibbous, 89% of the Moon is Illuminated
Jun 20
Waxing Gibbous
Jun 23
Full
Jun 29
Last Quarter
Jul 8
New
Jul 15
First Quarter

Hourly Weather History & Observations

Time (PDT) Temp. Dew Point Humidity Pressure Visibility Wind Dir Wind Speed Gust Speed Precip Events Conditions
12:53 AM 80.1 °F 46.9 °F 31% 29.64 in 10.0 mi Calm Calm - N/A   Clear
1:53 AM 80.1 °F 46.0 °F 30% 29.63 in 10.0 mi Variable 4.6 mph - N/A   Clear
2:53 AM 75.9 °F 51.1 °F 42% 29.62 in 10.0 mi WSW 3.5 mph - N/A   Clear
3:53 AM 77.0 °F 48.9 °F 37% 29.63 in 10.0 mi ESE 4.6 mph - N/A   Clear
4:53 AM 73.9 °F 50.0 °F 43% 29.64 in 10.0 mi Calm Calm - N/A   Clear
5:53 AM 73.9 °F 51.1 °F 45% 29.67 in 10.0 mi Calm Calm - N/A   Clear
6:53 AM 77.0 °F 45.0 °F 32% 29.69 in 10.0 mi Calm Calm - N/A   Clear
7:53 AM 80.1 °F 48.0 °F 32% 29.70 in 10.0 mi South 3.5 mph - N/A   Clear
8:53 AM 86.0 °F 43.0 °F 22% 29.72 in 10.0 mi Calm Calm - N/A   Clear
9:53 AM 89.1 °F 39.9 °F 18% 29.71 in 10.0 mi Variable 3.5 mph - N/A   Clear
10:53 AM 91.0 °F 34.0 °F 13% 29.72 in 10.0 mi SE 4.6 mph - N/A   Clear
11:53 AM 95.0 °F 34.0 °F 12% 29.72 in 10.0 mi Variable 5.8 mph - N/A   Clear
12:53 PM 97.0 °F 27.0 °F 8% 29.70 in 10.0 mi South 6.9 mph - N/A   Clear
1:53 PM 99.0 °F 30.0 °F 9% 29.69 in 10.0 mi SSE 4.6 mph - N/A   Clear
2:53 PM 99.0 °F 30.9 °F 9% 29.67 in 10.0 mi Calm Calm - N/A   Clear
3:53 PM 100.0 °F 30.9 °F 9% 29.65 in 10.0 mi Variable 3.5 mph - N/A   Clear
4:53 PM 100.0 °F 32.0 °F 9% 29.64 in 10.0 mi Variable 4.6 mph - N/A   Clear
5:53 PM 100.9 °F 37.0 °F 11% 29.63 in 10.0 mi NW 16.1 mph - N/A   Clear
6:53 PM 97.0 °F 42.1 °F 15% 29.63 in 10.0 mi NW 17.3 mph 24.2 mph N/A   Clear
7:53 PM 91.9 °F 44.1 °F 19% 29.64 in 10.0 mi NW 18.4 mph 31.1 mph N/A   Clear
8:53 PM 90.0 °F 43.0 °F 19% 29.65 in 10.0 mi NW 19.6 mph 28.8 mph N/A   Clear
9:53 PM 87.1 °F 43.0 °F 21% 29.68 in 10.0 mi NW 21.9 mph - N/A   Clear
10:53 PM 86.0 °F 41.0 °F 20% 29.68 in 10.0 mi NW 13.8 mph - N/A   Clear
11:53 PM 84.0 °F 37.9 °F 19% 29.68 in 10.0 mi NW 12.7 mph 23.0 mph N/A   Clear